NOAA 16 DEB, 41509

Orbit data source: Space-Track

NOAA 16 DEB, 41509 is space debris in SSO originally from a launch on Thu, 21 Sep 2000 UTC launched from the Air Force Western Test Range (AFWTR). Debris objects in space refer to the collection of defunct objects orbiting the Earth. Examples of debris include non-operational satellites, rocket bodies, and fragments generated from explosions, collisions, or faulty payload assembly.

Loading next visibility...
Identifier
41509, 2000-055MH
Orbit
SSO
Country
Flag of USUS
Related business
Manufacturer
Unknown
Mission
Spacecraft
Bus & Motor
Unknown
Mass
Unknown
Launch date (UTC)
2000-09-21 (25 years ago)
Launch vehicle
Unknown
Launch site
Air Force Western Test Range (AFWTR)
Object type
Payload
Rocket body
Debris
Shape & HBR
Unknown shape, 0.1 m
Radar Cross Section
Small (<0.1 m²)

Expand to show TLE details & history
Last TLE update: 1 day ago

TLE from 1 day ago
0 NOAA 16 DEB
1 41509U 00055MH  25342.49770222  .00007021  00000-0  27113-2 0  9994
2 41509  98.7641  75.7697 0018016 173.3055 186.8371 14.30382089502501
Epoch: 2025-12-08T11:56Z
TLE epoch observation values (Epoch: 2025-12-08T11:56:41.471Z)
Latitude
-0.00004°
Longitude
179.10103°
Altitude
806.207 km
Speed
7.444 km/s
True Right ascension
05h 03m 04s
True Declination
0° 00' 00"
Sunlit
Object was in full shadow at epoch
Visualization orbit readout
Latitude
Unknown
Longitude
Unknown
Altitude
Unknown
Speed
Unknown
Apparent Right ascension
Unknown
Apparent Declination
Unknown
Sunlit
N/A
Visualization observer readout
Local Sidereal Time
19:55:28
Azimuth
Unknown
Elevation
Unknown
Doppler factor
Unknown
Orbital elements
Apogee altitude
800.511 km
Perigee altitude
774.691 km
Semi-major axis
7,165.738 km
Eccentricity
0.0018
Inclination
98.7641°
RAAN
75.7697°
Arg. of periapsis
173.3055°
True anomaly
186.81258°
Mean anomaly
186.8371°
Eccentric anomaly
186.82483°
Mean motion
3.57809 °/min
Orbital period
100.61 mins
BSTAR
0.0027113
Loading maneuver chart data...
Computing Atmospheric mass density...
Loading historical data...
Loading historical data...
Loading historical data...
Loading historical data...
Loading historical data...
Loading historical data...
Loading historical data...

Documentation

Showing up to 5 results
|